Location: Heilbronn
(49.1548°N, 9.2780°E)
Time: 16:54:41
(UTC+02:00)

ISS - Pass Details

Date: 30 March 2017
Orbit: 401 x 409 km, 51.6° (Epoch: 28 April)

Event Time Altitude Azimuth Distance (km) Brightness Sun altitude
Rises 20:38:01 0° 224° (SW) 2,309 0.4 -8.3°
Reaches altitude 10° 20:40:10 10° 216° (SW) 1,455 -0.8 -8.7°
Maximum altitude 20:43:12 36° 148° (SSE) 657 -3.1 -9.1°
Enters shadow 20:45:59 12° 81° (E) 1,365 -1.7 -9.6°
